This demonstration page uses our WeatherBlox Daily Observations layout. Learn more.

Left ArrowRight Arrow

Hourly Observations for September 16, 2021

Temp ( °F °C ) Dew Point ( °F °C ) Humidity (%) Winds ( mph kmh ) Pressure ( in mb ) Visibility ( mi km ) Precip ( " mm )
12:53 am 00:53 Clear 56 13.3 56 13.3 100 100 N N/A 30.06 1018 8 13 N/A
1:53 am 01:53 Clear 58 14.4 57 13.9 97 97 N N/A 30.06 1018 7 11 N/A
2:53 am 02:53 Mostly Clear 58 14.4 58 14.4 100 100 N N/A 30.06 1018 8 13 N/A
3:53 am 03:53 Clear 58 14.4 58 14.4 100 100 N N/A 30.06 1018 8 13 N/A
4:53 am 04:53 Clear 58 14.4 58 14.4 100 100 N N/A 30.06 1018 9 14 N/A
5:53 am 05:53 Clear with Mist and Fog 57 13.9 57 13.9 100 100 N N/A 30.07 1018 5 8 N/A
6:01 am 06:01 Partly Cloudy 57 13.9 57 13.9 100 100 N N/A 30.09 1019 9 14 N/A
6:07 am 06:07 Mostly Cloudy 58 14.4 58 14.4 100 100 N N/A 30.09 1019 9 14 N/A
6:27 am 06:27 Cloudy 61 16.1 60 15.6 97 97 E 5 7 30.08 1019 7 11 N/A
6:53 am 06:53 Cloudy with Mist and Fog 63 17.2 63 17.2 100 100 N N/A 30.08 1019 4 6 N/A
7:11 am 07:11 Cloudy with Mist and Fog 63 17.2 63 17.2 100 100 N N/A 30.09 1019 2 3 N/A
7:19 am 07:19 Cloudy with Mist and Fog 64 17.8 63 17.2 96 96 N N/A 30.09 1019 1 2 N/A
7:31 am 07:31 Cloudy with Mist and Fog 64 17.8 64 17.8 100 100 N N/A 30.10 1019 2 3 N/A
7:51 am 07:51 Cloudy with Mist and Fog 64 18 64 18 100 100 ENE 3 6 30.10 1019 3 5 N/A
7:53 am 07:53 Cloudy with Mist and Fog 64 17.8 64 17.8 100 100 ENE 3 6 30.11 1020 3 5 N/A
8:12 am 08:12 Cloudy with Mist and Fog 65 18.3 65 18.3 100 100 NE 5 7 30.11 1020 3 4 N/A
8:32 am 08:32 Cloudy with Mist and Fog 65 18.3 65 18.3 100 100 ENE 6 9 30.11 1020 2 3 N/A
8:38 am 08:38 Cloudy with Mist and Fog 66 18.9 65 18.3 96 96 ENE 6 9 30.11 1020 2 3 N/A
8:49 am 08:49 Cloudy with Mist and Fog 66 19 64 18 94 94 NE 5 7 30.12 1020 2 3 N/A
8:53 am 08:53 Cloudy with Mist and Fog 66 18.9 65 18.3 96 96 NE 5 7 30.12 1020 2 3 N/A
9:05 am 09:05 Cloudy with Mist and Fog 66 18.9 65 18.3 96 96 NE 3 6 30.12 1020 3 4 N/A
9:31 am 09:31 Cloudy with Mist and Fog 66 18.9 66 18.9 100 100 N 5 7 30.13 1020 3 5 N/A
9:41 am 09:41 Cloudy with Mist and Fog 66 18.9 66 18.9 100 100 N 5 7 30.13 1020 3 4 N/A
9:48 am 09:48 Cloudy with Mist and Fog 66 19 66 19 100 100 N 5 7 30.13 1020 3 5 N/A
9:53 am 09:53 Cloudy with Mist and Fog 66 18.9 66 18.9 100 100 N 5 7 30.13 1020 3 5 N/A
10:16 am 10:16 Cloudy with Mist and Fog 67 19.4 66 18.9 97 97 NNE 3 6 30.13 1020 4 6 N/A
10:53 am 10:53 Cloudy 69 20.6 67 19.4 93 93 N N/A 30.14 1021 7 11 N/A
11:53 am 11:53 Cloudy 71 21.7 66 18.9 84 84 E 3 6 30.14 1021 10 16 N/A
12:53 pm 12:53 Cloudy 72 22.2 66 18.9 82 82 NE 6 9 30.13 1020 10 16 N/A
1:53 pm 13:53 Cloudy 74 23.3 66 18.9 76 76 VRB 6 9 30.12 1020 10 16 N/A
2:53 pm 14:53 Cloudy 76 24.4 66 18.9 72 72 E 7 11 30.10 1019 10 16 N/A
3:51 pm 15:51 Cloudy 75 24 66 19 74 74 E 6 9 30.08 1019 10 16 N/A
3:53 pm 15:53 Cloudy 76 24.4 66 18.9 72 72 VRB 3 6 30.09 1019 10 16 N/A
4:22 pm 16:22 Mostly Cloudy 78 25.6 65 18.3 64 64 E 8 13 30.05 1018 10 16 N/A
4:31 pm 16:31 Partly Cloudy 79 26.1 66 18.9 65 65 VRB 3 6 30.05 1018 10 16 N/A
4:53 pm 16:53 Mostly Sunny 79 26.1 65 18.3 62 62 N N/A 30.07 1018 10 16 N/A
5:53 pm 17:53 Sunny 80 26.7 66 18.9 62 62 E 5 7 30.07 1018 10 16 N/A
6:53 pm 18:53 Sunny 78 25.6 66 18.9 67 67 NE 5 7 30.07 1018 10 16 N/A
7:53 pm 19:53 Clear 70 21.1 67 19.4 90 90 NNE 3 6 30.07 1018 10 16 N/A
8:53 pm 20:53 Clear 67 19.4 66 18.9 97 97 N N/A 30.09 1019 10 16 N/A
9:53 pm 21:53 Clear 65 18.3 64 17.8 97 97 N N/A 30.11 1020 9 14 N/A
10:53 pm 22:53 Clear with Mist and Fog 63 17.2 63 17.2 100 100 N N/A 30.11 1020 5 8 N/A
11:53 pm 23:53 Clear with Mist and Fog 63 17.2 62 16.7 97 97 N N/A 30.11 1020 6 10 N/A

Powered by AerisWeather